TimeMST,TemperatureF,Dew PointF,Humidity,Sea Level PressureIn,VisibilityMPH,Wind Direction,Wind SpeedMPH,Gust SpeedMPH,PrecipitationIn,Events,Conditions,WindDirDegrees,DateUTC
12:00 AM,9.3,5.9,86,29.92,-9999.0,West,1.2,-,N/A,,Unknown,260,2012-12-08 07:00:00
1:00 AM,8.1,4.8,87,29.94,-9999.0,Calm,Calm,-,N/A,,Unknown,0,2012-12-08 08:00:00
2:00 AM,6.3,3.0,87,29.97,-9999.0,Calm,Calm,-,N/A,,Unknown,0,2012-12-08 09:00:00
3:00 AM,5.7,2.7,87,30.01,-9999.0,Calm,Calm,-,N/A,,Unknown,0,2012-12-08 10:00:00
4:00 AM,1.4,-2.2,85,30.05,-9999.0,Calm,Calm,-,N/A,,Unknown,0,2012-12-08 11:00:00
5:00 AM,-0.4,-3.8,85,30.09,-9999.0,Calm,Calm,-,N/A,,Unknown,0,2012-12-08 12:00:00
6:00 AM,-0.0,-3.8,84,30.13,-9999.0,Calm,Calm,-,N/A,,Unknown,0,2012-12-08 13:00:00
7:00 AM,-1.7,-5.4,84,30.17,-9999.0,WSW,1.2,-,N/A,,Unknown,240,2012-12-08 14:00:00
9:00 AM,-4.4,-8.3,83,30.25,-9999.0,Calm,Calm,-,N/A,,Unknown,0,2012-12-08 16:00:00
10:00 AM,-0.8,-4.9,83,30.26,-9999.0,Calm,Calm,-,N/A,,Unknown,0,2012-12-08 17:00:00
11:00 AM,4.1,-1.3,78,30.25,-9999.0,Calm,Calm,-,N/A,,Unknown,0,2012-12-08 18:00:00
12:00 PM,7.7,1.6,76,30.25,-9999.0,WSW,1.2,-,N/A,,Unknown,240,2012-12-08 19:00:00
1:00 PM,11.8,-0.4,58,30.23,-9999.0,Calm,Calm,-,N/A,,Unknown,0,2012-12-08 20:00:00
2:00 PM,15.8,3.9,60,30.22,-9999.0,Calm,Calm,-,N/A,,Unknown,0,2012-12-08 21:00:00
3:00 PM,11.8,5.0,74,30.26,-9999.0,WSW,2.3,-,N/A,,Unknown,240,2012-12-08 22:00:00
4:00 PM,10.0,4.5,78,30.29,-9999.0,SW,2.3,-,N/A,,Unknown,230,2012-12-08 23:00:00
5:00 PM,5.7,1.9,84,30.32,-9999.0,Calm,Calm,-,N/A,,Unknown,0,2012-12-09 00:00:00
6:00 PM,2.5,-0.4,88,30.35,-9999.0,Calm,Calm,-,N/A,,Unknown,0,2012-12-09 01:00:00
7:00 PM,-0.8,-4.0,86,30.39,-9999.0,Calm,Calm,-,N/A,,Unknown,0,2012-12-09 02:00:00
9:00 PM,-4.2,-8.1,83,30.41,-9999.0,North,1.2,-,N/A,,Unknown,10,2012-12-09 04:00:00
10:00 PM,-2.2,-6.2,83,30.40,-9999.0,NE,1.2,-,N/A,,Unknown,50,2012-12-09 05:00:00
11:00 PM,0.1,-3.6,84,30.38,-9999.0,NNE,1.2,-,N/A,,Unknown,20,2012-12-09 06:00:00